RYR9953 LIRP-LICC

Flight info

Callsign RYR9953
Flight time 1h 16m
Altitude 19000
Route DOCME M729 ELB/N0437F370 DCT VELAD DCT TINTO DCT POKAV DCT RONAB DCT PAL DCT BEKIV DCT LIBRO
Aircraft B738/M-SDE3FGIJ1LRWY/SB1

Departure

Time 2026-05-09 12:54
Airport Pisa International Airport (LIRP)

Arrival

Time 2026-05-09 14:11
Airport Catania-Fontanarossa Airport (LICC)
Time Latitude Longitude Altitude Speed Heading
2026-05-09 12:27 43.69763 10.39970 14 ft 0 kts
2026-05-09 12:47 43.69754 10.39968 15 ft 2 kts
2026-05-09 12:47 43.69737 10.39965 15 ft 2 kts
2026-05-09 12:48 43.69721 10.39962 15 ft 2 kts
2026-05-09 12:48 43.69705 10.39957 15 ft 2 kts 37°
2026-05-09 12:48 43.69697 10.39943 15 ft 1 kts 95°
2026-05-09 12:48 43.69698 10.39936 14 ft 0 kts 101°
2026-05-09 12:51 43.69698 10.39937 15 ft 1 kts 102°
2026-05-09 12:51 43.69673 10.39995 14 ft 13 kts 127°
2026-05-09 12:51 43.69561 10.40071 15 ft 18 kts 171°
2026-05-09 12:51 43.69513 10.40080 14 ft 0 kts 172°
2026-05-09 12:52 43.69512 10.40080 14 ft 3 kts 172°
2026-05-09 12:53 43.69463 10.40090 14 ft 13 kts 172°
2026-05-09 12:53 43.69345 10.40080 15 ft 21 kts 207°
2026-05-09 12:53 43.69127 10.39866 13 ft 74 kts 215°
2026-05-09 12:53 43.68491 10.39205 15 ft 151 kts 217°
2026-05-09 12:54 43.67497 10.38228 396 ft 192 kts 216°
2026-05-09 12:54 43.66341 10.37085 1200 ft 208 kts 217°
2026-05-09 12:54 43.65189 10.35886 2180 ft 213 kts 217°
2026-05-09 12:54 43.63928 10.34550 2616 ft 243 kts 218°
2026-05-09 12:55 43.62576 10.33121 3154 ft 250 kts 216°
2026-05-09 12:55 43.61301 10.31392 3738 ft 261 kts 237°
2026-05-09 12:55 43.60778 10.28972 4313 ft 271 kts 270°
2026-05-09 12:55 43.61262 10.26490 4973 ft 277 kts 298°
2026-05-09 12:56 43.62500 10.24503 5580 ft 274 kts 325°
2026-05-09 12:56 43.64234 10.23497 6209 ft 274 kts 352°
2026-05-09 12:56 43.66125 10.23691 6833 ft 277 kts 22°
2026-05-09 12:56 43.67690 10.25174 7451 ft 275 kts 51°
2026-05-09 12:57 43.68607 10.27464 8065 ft 274 kts 78°
2026-05-09 12:57 43.68880 10.30063 8747 ft 275 kts 83°
2026-05-09 12:57 43.69173 10.32698 9383 ft 280 kts 82°
2026-05-09 12:57 43.69191 10.35381 10000 ft 282 kts 104°
2026-05-09 12:58 43.68371 10.37811 10590 ft 282 kts 131°
2026-05-09 12:58 43.66829 10.39459 11223 ft 285 kts 158°
2026-05-09 12:58 43.64886 10.40082 11862 ft 291 kts 178°
2026-05-09 12:58 43.62832 10.40153 12517 ft 299 kts 182°
2026-05-09 12:59 43.60722 10.40121 13165 ft 308 kts 183°
2026-05-09 12:59 43.58548 10.40066 13840 ft 317 kts 184°
2026-05-09 12:59 43.56316 10.40016 14431 ft 324 kts 183°
2026-05-09 12:59 43.54031 10.39973 15033 ft 332 kts 183°
2026-05-09 13:00 43.51696 10.39941 15641 ft 339 kts 184°
2026-05-09 13:00 43.49316 10.39918 16263 ft 345 kts 184°
2026-05-09 13:00 43.46899 10.39900 16902 ft 350 kts 184°
2026-05-09 13:00 43.44441 10.39885 17540 ft 356 kts 184°
2026-05-09 13:01 43.41946 10.39871 18209 ft 360 kts 184°
2026-05-09 13:01 43.39425 10.39859 18796 ft 364 kts 184°
2026-05-09 13:01 43.36881 10.39847 19387 ft 367 kts 184°
2026-05-09 13:01 43.34313 10.39836 19986 ft 370 kts 184°
2026-05-09 13:02 43.31721 10.39825 20601 ft 372 kts 184°
2026-05-09 13:02 43.29122 10.39814 21230 ft 374 kts 184°
2026-05-09 13:02 43.26519 10.39804 21870 ft 375 kts 184°
2026-05-09 13:02 43.23901 10.39793 22521 ft 376 kts 184°
2026-05-09 13:03 43.21283 10.39782 23185 ft 376 kts 185°
2026-05-09 13:03 43.18665 10.39771 23819 ft 376 kts 185°
2026-05-09 13:03 43.16047 10.39760 24394 ft 376 kts 185°
2026-05-09 13:03 43.13525 10.39750 24939 ft 375 kts 185°
2026-05-09 13:04 43.10838 10.39739 25545 ft 373 kts 186°
2026-05-09 13:04 43.08248 10.39728 26142 ft 371 kts 186°
2026-05-09 13:04 43.05709 10.39718 26741 ft 369 kts 187°
2026-05-09 13:04 43.03153 10.39707 27364 ft 366 kts 187°
2026-05-09 13:05 43.00573 10.39697 28005 ft 363 kts 187°
2026-05-09 13:05 42.98061 10.39687 28654 ft 359 kts 188°
2026-05-09 13:05 42.95612 10.39678 29298 ft 355 kts 188°
2026-05-09 13:05 42.93149 10.39667 29875 ft 353 kts 189°
2026-05-09 13:06 42.90697 10.39654 30378 ft 351 kts 189°
2026-05-09 13:06 42.88249 10.39641 30753 ft 353 kts 189°
2026-05-09 13:06 42.85788 10.39627 31068 ft 356 kts 189°
2026-05-09 13:07 42.81562 10.39600 31076 ft 373 kts 188°
2026-05-09 13:07 42.76251 10.39575 31078 ft 390 kts 188°
2026-05-09 13:07 42.73483 10.39855 31069 ft 407 kts 179°
2026-05-09 13:08 42.70666 10.40762 31069 ft 425 kts 168°
2026-05-09 13:08 42.67860 10.42212 31090 ft 436 kts 166°
2026-05-09 13:08 42.65022 10.43788 31070 ft 445 kts 165°
2026-05-09 13:09 42.59219 10.47064 31075 ft 458 kts 165°
2026-05-09 13:09 42.53244 10.50378 31077 ft 469 kts 165°
2026-05-09 13:10 42.47159 10.53699 31064 ft 478 kts 165°
2026-05-09 13:10 42.40956 10.57071 31063 ft 477 kts 165°
2026-05-09 13:11 42.34836 10.60388 31057 ft 477 kts 165°
2026-05-09 13:11 42.28681 10.63714 31055 ft 476 kts 165°
2026-05-09 13:12 42.22527 10.67033 31062 ft 476 kts 165°
2026-05-09 13:12 42.16380 10.70341 31062 ft 476 kts 165°
2026-05-09 13:13 42.10228 10.73646 31064 ft 475 kts 165°
2026-05-09 13:13 42.04085 10.76938 31062 ft 475 kts 165°
2026-05-09 13:14 41.97945 10.80219 31064 ft 475 kts 165°
2026-05-09 13:16 41.73397 10.93275 31061 ft 474 kts 165°
2026-05-09 13:16 41.67269 10.96518 31066 ft 473 kts 165°
2026-05-09 13:17 41.61144 10.99753 31063 ft 473 kts 165°
2026-05-09 13:17 41.55071 11.02955 31065 ft 472 kts 165°
2026-05-09 13:18 41.48957 11.06171 31065 ft 472 kts 165°
2026-05-09 13:18 41.42846 11.09378 31066 ft 472 kts 165°
2026-05-09 13:19 41.36739 11.12577 31063 ft 472 kts 165°
2026-05-09 13:19 41.30635 11.15769 31064 ft 471 kts 165°
2026-05-09 13:20 41.24528 11.18957 31066 ft 471 kts 165°
2026-05-09 13:20 41.18423 11.22138 31062 ft 471 kts 165°
2026-05-09 13:21 41.12320 11.25311 31063 ft 471 kts 165°
2026-05-09 13:21 41.06218 11.28478 31065 ft 471 kts 165°
2026-05-09 13:22 41.00112 11.31640 31066 ft 471 kts 165°
2026-05-09 13:22 40.94010 11.34795 31063 ft 471 kts 165°
2026-05-09 13:23 40.78778 11.42639 31061 ft 471 kts 165°
2026-05-09 13:24 40.72665 11.45773 31063 ft 472 kts 165°
2026-05-09 13:24 40.66551 11.48903 31070 ft 472 kts 165°
2026-05-09 13:25 40.60412 11.52041 31062 ft 472 kts 165°
2026-05-09 13:26 40.51216 11.56730 31060 ft 472 kts 165°
2026-05-09 13:26 40.45089 11.59846 31071 ft 472 kts 165°
2026-05-09 13:27 40.38955 11.62960 31067 ft 472 kts 165°
2026-05-09 13:27 40.32822 11.66068 31062 ft 472 kts 165°
2026-05-09 13:28 40.26692 11.69167 31064 ft 472 kts 165°
2026-05-09 13:28 40.20593 11.72245 31062 ft 472 kts 165°
2026-05-09 13:29 40.14460 11.75335 31063 ft 472 kts 165°
2026-05-09 13:29 40.08325 11.78419 31070 ft 472 kts 165°
2026-05-09 13:30 40.02194 11.81496 31061 ft 472 kts 165°
2026-05-09 13:30 39.96056 11.84571 31064 ft 472 kts 165°
2026-05-09 13:31 39.89918 11.87640 31060 ft 472 kts 165°
2026-05-09 13:31 39.83881 11.91120 31069 ft 479 kts 158°
2026-05-09 13:32 39.78054 11.95360 31058 ft 481 kts 156°
2026-05-09 13:32 39.69333 12.01782 31059 ft 480 kts 157°
2026-05-09 13:33 39.63493 12.05994 31061 ft 480 kts 157°
2026-05-09 13:33 39.57642 12.10178 31058 ft 480 kts 157°
2026-05-09 13:34 39.51796 12.14348 31057 ft 480 kts 157°
2026-05-09 13:34 39.45937 12.18522 31059 ft 480 kts 157°
2026-05-09 13:35 39.40082 12.22687 31058 ft 481 kts 157°
2026-05-09 13:35 39.34220 12.26849 31056 ft 481 kts 157°
2026-05-09 13:36 39.28348 12.31011 31058 ft 481 kts 157°
2026-05-09 13:36 39.22480 12.35160 31051 ft 481 kts 157°
2026-05-09 13:37 39.16602 12.39310 31055 ft 482 kts 157°
2026-05-09 13:37 39.10715 12.43458 31052 ft 482 kts 157°
2026-05-09 13:38 39.04826 12.47599 31052 ft 483 kts 157°
2026-05-09 13:38 38.98923 12.51742 31048 ft 483 kts 157°
2026-05-09 13:39 38.93014 12.55881 31049 ft 484 kts 157°
2026-05-09 13:39 38.87092 12.60022 30949 ft 486 kts 157°
2026-05-09 13:40 38.84154 12.62072 30698 ft 486 kts 157°
2026-05-09 13:40 38.81147 12.64171 30455 ft 485 kts 157°
2026-05-09 13:40 38.78187 12.66235 30216 ft 485 kts 157°
2026-05-09 13:40 38.75253 12.68277 29963 ft 486 kts 157°
2026-05-09 13:41 38.72286 12.70341 29688 ft 486 kts 157°
2026-05-09 13:41 38.69311 12.72407 29403 ft 486 kts 157°
2026-05-09 13:41 38.66338 12.74471 29132 ft 486 kts 157°
2026-05-09 13:41 38.63364 12.76534 28873 ft 487 kts 157°
2026-05-09 13:42 38.60387 12.78597 28599 ft 487 kts 157°
2026-05-09 13:42 38.57406 12.80660 28336 ft 487 kts 157°
2026-05-09 13:42 38.54421 12.82724 28077 ft 488 kts 157°
2026-05-09 13:42 38.51435 12.84787 27814 ft 489 kts 157°
2026-05-09 13:43 38.48438 12.86856 27560 ft 490 kts 157°
2026-05-09 13:43 38.45434 12.88927 27309 ft 491 kts 157°
2026-05-09 13:43 38.42424 12.91000 27064 ft 492 kts 156°
2026-05-09 13:43 38.39411 12.93074 26804 ft 493 kts 156°
2026-05-09 13:44 38.36386 12.95154 26554 ft 494 kts 156°
2026-05-09 13:44 38.33354 12.97237 26314 ft 496 kts 156°
2026-05-09 13:44 38.30316 12.99323 26077 ft 496 kts 156°
2026-05-09 13:44 38.27272 13.01411 25829 ft 497 kts 156°
2026-05-09 13:45 38.24228 13.03496 25593 ft 497 kts 156°
2026-05-09 13:45 38.21187 13.05578 25353 ft 497 kts 156°
2026-05-09 13:45 38.18144 13.07661 25115 ft 495 kts 156°
2026-05-09 13:45 38.15112 13.09733 24877 ft 494 kts 156°
2026-05-09 13:46 38.12095 13.11793 24651 ft 492 kts 156°
2026-05-09 13:46 38.09126 13.13818 24430 ft 490 kts 156°
2026-05-09 13:46 38.06180 13.16111 24163 ft 494 kts 147°
2026-05-09 13:46 38.03713 13.19088 23962 ft 500 kts 134°
2026-05-09 13:47 38.01708 13.22703 23724 ft 504 kts 122°
2026-05-09 13:47 38.00273 13.26833 23496 ft 505 kts 113°
2026-05-09 13:47 37.99040 13.30927 23228 ft 503 kts 113°
2026-05-09 13:47 37.97802 13.35065 22955 ft 501 kts 113°
2026-05-09 13:48 37.96549 13.39172 22680 ft 498 kts 113°
2026-05-09 13:48 37.95279 13.43246 22435 ft 496 kts 114°
2026-05-09 13:48 37.93999 13.47285 22167 ft 494 kts 114°
2026-05-09 13:48 37.92713 13.51311 21908 ft 492 kts 114°
2026-05-09 13:49 37.91429 13.55318 21652 ft 490 kts 114°
2026-05-09 13:49 37.90149 13.59312 21379 ft 488 kts 114°
2026-05-09 13:49 37.88874 13.63294 21080 ft 488 kts 114°
2026-05-09 13:49 37.87601 13.67267 20748 ft 487 kts 114°
2026-05-09 13:50 37.86341 13.71215 20426 ft 481 kts 114°
2026-05-09 13:50 37.85100 13.75120 20123 ft 476 kts 114°
2026-05-09 13:50 37.83866 13.79004 19813 ft 475 kts 114°
2026-05-09 13:50 37.82637 13.82870 19484 ft 472 kts 114°
2026-05-09 13:51 37.81415 13.86707 19243 ft 468 kts 114°
2026-05-09 13:51 37.80196 13.90523 18963 ft 467 kts 114°
2026-05-09 13:51 37.78983 13.94315 18715 ft 465 kts 114°
2026-05-09 13:51 37.77769 13.98105 18476 ft 464 kts 114°
2026-05-09 13:52 37.76556 14.01886 18204 ft 464 kts 114°
2026-05-09 13:52 37.75345 14.05656 17930 ft 463 kts 114°
2026-05-09 13:52 37.74130 14.09432 17630 ft 464 kts 114°
2026-05-09 13:52 37.72914 14.13211 17238 ft 465 kts 114°
2026-05-09 13:53 37.71701 14.16974 16859 ft 459 kts 113°
2026-05-09 13:53 37.70505 14.20681 16483 ft 453 kts 113°
2026-05-09 13:53 37.69317 14.24358 16107 ft 452 kts 113°
2026-05-09 13:53 37.68129 14.28028 15748 ft 450 kts 113°
2026-05-09 13:54 37.66962 14.31629 15379 ft 449 kts 113°
2026-05-09 13:54 37.65782 14.35268 15040 ft 446 kts 113°
2026-05-09 13:54 37.64608 14.38885 14678 ft 445 kts 113°
2026-05-09 13:54 37.63437 14.42485 14334 ft 443 kts 113°
2026-05-09 13:55 37.62421 14.46138 13959 ft 440 kts 102°
2026-05-09 13:55 37.62247 14.49890 13583 ft 419 kts 84°
2026-05-09 13:55 37.62542 14.53449 13191 ft 398 kts 82°
2026-05-09 13:55 37.62832 14.56840 12792 ft 381 kts 83°
2026-05-09 13:56 37.63080 14.60107 12428 ft 367 kts 83°
2026-05-09 13:56 37.63227 14.62209 12172 ft 359 kts 83°
2026-05-09 13:56 37.63438 14.65298 11802 ft 348 kts 83°
2026-05-09 13:56 37.63386 14.68298 11404 ft 340 kts 102°
2026-05-09 13:57 37.62479 14.70987 11054 ft 330 kts 127°
2026-05-09 13:57 37.60916 14.73003 10716 ft 317 kts 148°
2026-05-09 13:57 37.59012 14.74288 10356 ft 305 kts 166°
2026-05-09 13:57 37.56979 14.74625 10105 ft 290 kts 196°
2026-05-09 13:58 37.55218 14.73560 10109 ft 280 kts 229°
2026-05-09 13:58 37.54128 14.71606 10111 ft 271 kts 248°
2026-05-09 13:58 37.53529 14.69403 10077 ft 262 kts 263°
2026-05-09 13:58 37.53296 14.67129 9990 ft 265 kts 266°
2026-05-09 13:59 37.53109 14.64793 9615 ft 271 kts 266°
2026-05-09 13:59 37.52926 14.62423 9241 ft 272 kts 266°
2026-05-09 13:59 37.52730 14.60048 8872 ft 273 kts 265°
2026-05-09 13:59 37.52524 14.57659 8484 ft 275 kts 265°
2026-05-09 14:00 37.52314 14.55270 8113 ft 275 kts 265°
2026-05-09 14:00 37.52174 14.53684 7880 ft 276 kts 265°
2026-05-09 14:00 37.51886 14.50462 7361 ft 275 kts 264°
2026-05-09 14:00 37.51446 14.48163 6989 ft 269 kts 245°
2026-05-09 14:01 37.50322 14.46315 6661 ft 267 kts 224°
2026-05-09 14:01 37.48742 14.45113 6280 ft 267 kts 206°
2026-05-09 14:01 37.46937 14.44635 5929 ft 267 kts 184°
2026-05-09 14:01 37.45092 14.44765 5620 ft 264 kts 175°
2026-05-09 14:02 37.43368 14.45552 5240 ft 269 kts 146°
2026-05-09 14:02 37.42173 14.47309 5088 ft 260 kts 115°
2026-05-09 14:02 37.41724 14.49520 4919 ft 271 kts 90°
2026-05-09 14:02 37.41904 14.51807 4948 ft 257 kts 83°
2026-05-09 14:03 37.42109 14.53987 4978 ft 247 kts 83°
2026-05-09 14:03 37.42309 14.56124 4990 ft 243 kts 84°
2026-05-09 14:03 37.42502 14.58236 4978 ft 244 kts 83°
2026-05-09 14:03 37.42681 14.60355 4911 ft 245 kts 83°
2026-05-09 14:04 37.42874 14.62495 4679 ft 248 kts 84°
2026-05-09 14:04 37.43072 14.64624 4474 ft 242 kts 83°
2026-05-09 14:04 37.43256 14.66706 4274 ft 237 kts 83°
2026-05-09 14:04 37.43430 14.68719 4095 ft 233 kts 83°
2026-05-09 14:05 37.43617 14.70728 3839 ft 227 kts 84°
2026-05-09 14:05 37.43789 14.72677 3620 ft 221 kts 82°
2026-05-09 14:05 37.43954 14.74561 3482 ft 215 kts 85°
2026-05-09 14:05 37.44112 14.76434 3204 ft 212 kts 84°
2026-05-09 14:06 37.44265 14.78245 3021 ft 204 kts 85°
2026-05-09 14:06 37.44410 14.79997 3002 ft 199 kts 85°
2026-05-09 14:06 37.44560 14.81723 2997 ft 199 kts 84°
2026-05-09 14:06 37.44720 14.83457 2964 ft 198 kts 83°
2026-05-09 14:07 37.44897 14.85147 2974 ft 194 kts 84°
2026-05-09 14:07 37.45043 14.86802 2921 ft 188 kts 84°
2026-05-09 14:07 37.45176 14.88418 2728 ft 183 kts 84°
2026-05-09 14:07 37.45308 14.90010 2477 ft 183 kts 84°
2026-05-09 14:08 37.45439 14.91585 2217 ft 179 kts 85°
2026-05-09 14:08 37.45541 14.93084 1997 ft 168 kts 85°
2026-05-09 14:08 37.45689 14.94511 1752 ft 157 kts 87°
2026-05-09 14:08 37.45785 14.95820 1568 ft 150 kts 85°
2026-05-09 14:09 37.45890 14.97095 1361 ft 145 kts 85°
2026-05-09 14:09 37.46009 14.98350 1192 ft 143 kts 86°
2026-05-09 14:09 37.46116 14.99571 1023 ft 142 kts 85°
2026-05-09 14:09 37.46196 15.00828 786 ft 146 kts 84°
2026-05-09 14:10 37.46416 15.03447 403 ft 151 kts 82°
2026-05-09 14:10 37.46523 15.04737 168 ft 146 kts 84°
2026-05-09 14:10 37.46624 15.05976 41 ft 136 kts 83°
2026-05-09 14:11 37.46697 15.06859 35 ft 43 kts 83°
2026-05-09 14:11 37.46781 15.06915 33 ft 5 kts 334°
2026-05-09 14:11 37.46794 15.06907 31 ft 1 kts 333°
2026-05-09 14:11 37.46809 15.06898 32 ft 4 kts 333°
2026-05-09 14:12 37.46838 15.06877 29 ft 7 kts 324°
2026-05-09 14:12 37.46857 15.06792 31 ft 13 kts 264°
2026-05-09 14:12 37.46846 15.06666 33 ft 15 kts 264°
2026-05-09 14:12 37.46836 15.06539 32 ft 14 kts 265°
2026-05-09 14:13 37.46827 15.06427 32 ft 11 kts 263°
2026-05-09 14:14 37.46981 15.06413 29 ft 0 kts 31°